Delta, CO

3:52 PM MDT on April 24, 2017 (GMT -0600)
Delta

Weather History for KAJZ - July, 2013

Change the Weather History Date:

Sunday, July 7, 2013

  Actual Average (KMTJ) Record (KMTJ)
Temperature  
Mean Temperature 82 °F -  
Max Temperature 97 °F 88 °F 96 °F (2002)
Min Temperature 66 °F 55 °F 54 °F (1997)
Cooling Degree Days 16    
Growing Degree Days 32 (Base 50)    
Moisture  
Dew Point 45 °F    
Average Humidity 29    
Maximum Humidity 60    
Minimum Humidity 13    
Precipitation  
Precipitation 0.00 in - - ()
Sea Level Pressure  
Sea Level Pressure 30.07 in    
Wind  
Wind Speed 8 mph (East)    
Max Wind Speed 31 mph    
Max Gust Speed 43 mph    
Visibility 10 miles    
Events Thunderstorm    
Averages and records for this station are not official NWS values.
T = Trace of Precipitation, MM = Missing Value Source: NWS Daily Summary

Daily Weather History Graph

Daily Weather History Graph

Search for Another Location

Airport or City:

Trip Planner

Search our weather history database for the weather conditions in past years. The results will help you decide how hot, cold, wet, or windy it might be!

Date:

Astronomy

Jul. 07, 2013 Rise Set
Actual Time 5:54 AM MDT 8:39 PM MDT
Civil Twilight 5:22 AM MDT 9:11 PM MDT
Nautical Twilight 4:43 AM MDT 9:50 PM MDT
Astronomical Twilight 3:58 AM MDT 10:35 PM MDT
Moon 5:32 AM MDT (7/7) 8:06 PM MDT (7/7)
Length of Visible Light 15h 48m
Length of Day
14h 45m
Waning Crescent, 0% of the Moon is Illuminated
Jul 7
Waning Crescent
Jul 8
New
Jul 15
First Quarter
Jul 22
Full
Jul 29
Last Quarter

Hourly Weather History & Observations

Time (MDT) Temp. Dew Point Humidity Pressure Visibility Wind Dir Wind Speed Gust Speed Precip Events Conditions
12:15 AM 82.2 °F 45.0 °F 27% 30.07 in 10.0 mi ENE 8.1 mph - N/A   Mostly Cloudy
12:35 AM 79.5 °F 47.1 °F 32% 30.08 in 10.0 mi ENE 13.8 mph 19.6 mph N/A   Overcast
12:55 AM 79.9 °F 44.8 °F 29% 30.08 in 10.0 mi ESE 4.6 mph - N/A   Overcast
1:15 AM 79.0 °F 47.3 °F 33% 30.08 in 10.0 mi East 5.8 mph - N/A   Scattered Clouds
1:35 AM 76.5 °F 50.9 °F 41% 30.09 in 10.0 mi ENE 9.2 mph - N/A   Mostly Cloudy
1:55 AM 76.5 °F 49.5 °F 39% 30.09 in 10.0 mi East 5.8 mph - N/A   Mostly Cloudy
2:15 AM 76.5 °F 49.3 °F 38% 30.10 in 10.0 mi North 6.9 mph - N/A   Mostly Cloudy
2:35 AM 74.7 °F 51.4 °F 44% 30.09 in 10.0 mi NE 8.1 mph - N/A   Mostly Cloudy
2:55 AM 74.7 °F 50.4 °F 42% 30.08 in 10.0 mi NE 9.2 mph - N/A   Scattered Clouds
3:15 AM 74.3 °F 50.2 °F 43% 30.08 in 10.0 mi ENE 8.1 mph - N/A   Clear
3:35 AM 73.4 °F 50.2 °F 44% 30.08 in 10.0 mi ENE 6.9 mph - N/A   Clear
3:55 AM 72.5 °F 50.9 °F 47% 30.09 in 10.0 mi NE 6.9 mph - N/A   Clear
4:15 AM 71.6 °F 50.7 °F 48% 30.09 in 10.0 mi ENE 4.6 mph - N/A   Clear
4:35 AM 70.5 °F 50.0 °F 48% 30.09 in 10.0 mi ENE 5.8 mph - N/A   Clear
4:55 AM 68.7 °F 49.5 °F 50% 30.09 in 10.0 mi NE 4.6 mph - N/A   Clear
5:15 AM 68.5 °F 49.6 °F 51% 30.10 in 10.0 mi East 8.1 mph - N/A   Clear
5:35 AM 67.6 °F 51.1 °F 55% 30.11 in 10.0 mi East 9.2 mph - N/A   Clear
5:55 AM 67.1 °F 50.9 °F 56% 30.11 in 10.0 mi East 6.9 mph - N/A   Clear
6:15 AM 67.1 °F 51.4 °F 57% 30.12 in 10.0 mi ENE 4.6 mph - N/A   Clear
6:35 AM 66.2 °F 52.0 °F 60% 30.13 in 10.0 mi NNE 6.9 mph - N/A   Clear
6:55 AM 67.1 °F 52.0 °F 58% 30.13 in 10.0 mi North 6.9 mph - N/A   Clear
7:15 AM 69.8 °F 51.8 °F 53% 30.13 in 7.0 mi NE 4.6 mph - N/A   Clear
7:35 AM 71.1 °F 51.8 °F 50% 30.14 in 10.0 mi East 4.6 mph - N/A   Clear
7:55 AM 72.0 °F 51.4 °F 48% 30.15 in 10.0 mi NE 4.6 mph - N/A   Clear
8:15 AM 73.6 °F 49.5 °F 43% 30.15 in 10.0 mi ENE 3.5 mph - N/A   Clear
8:35 AM 75.2 °F 50.9 °F 42% 30.16 in 10.0 mi ENE 8.1 mph - N/A   Clear
8:55 AM 76.5 °F 50.9 °F 41% 30.16 in 10.0 mi NNE 4.6 mph - N/A   Clear
9:15 AM 77.7 °F 50.0 °F 38% 30.16 in 10.0 mi Calm Calm - N/A   Clear
9:35 AM 79.2 °F 50.2 °F 36% 30.15 in 10.0 mi Calm Calm - N/A   Clear
9:55 AM 80.4 °F 48.4 °F 32% 30.15 in 10.0 mi ESE 3.5 mph - N/A   Clear
10:15 AM 81.9 °F 47.1 °F 30% 30.15 in 10.0 mi SSE 3.5 mph - N/A   Clear
10:35 AM 83.1 °F 47.5 °F 29% 30.14 in 10.0 mi East 4.6 mph - N/A   Clear
10:55 AM 84.6 °F 46.0 °F 26% 30.14 in 10.0 mi Calm Calm - N/A   Clear
11:15 AM 86.0 °F 46.4 °F 25% 30.14 in 10.0 mi East 4.6 mph - N/A   Clear
11:35 AM 86.4 °F 45.3 °F 24% 30.13 in 10.0 mi Calm Calm - N/A   Clear
11:55 AM 87.1 °F 44.2 °F 22% 30.12 in 10.0 mi SE 3.5 mph - N/A   Clear
12:15 PM 89.4 °F 44.1 °F 21% 30.12 in 7.0 mi SSE 3.5 mph - N/A   Clear
12:35 PM 90.1 °F 45.1 °F 21% 30.11 in 10.0 mi SSE 3.5 mph - N/A   Clear
12:55 PM 91.8 °F 39.0 °F 16% 30.09 in 10.0 mi South 3.5 mph - N/A   Clear
1:15 PM 93.2 °F 38.1 °F 15% 30.08 in 10.0 mi SSE 5.8 mph - N/A   Clear
1:35 PM 94.6 °F 35.6 °F 13% 30.07 in 10.0 mi SSW 5.8 mph - N/A   Clear
1:55 PM 94.3 °F 37.8 °F 14% 30.06 in 10.0 mi SW 5.8 mph - N/A   Clear
2:15 PM 94.8 °F 37.9 °F 14% 30.05 in 10.0 mi South 4.6 mph - N/A   Clear
2:35 PM 95.5 °F 37.2 °F 13% 30.04 in 10.0 mi SE 8.1 mph - N/A   Clear
2:55 PM 95.9 °F 37.6 °F 13% 30.03 in 10.0 mi ESE 6.9 mph 16.1 mph N/A   Clear
3:15 PM 95.7 °F 37.2 °F 13% 30.02 in 10.0 mi SSW 8.1 mph - N/A   Clear
3:35 PM 96.8 °F 37.4 °F 13% 30.01 in 10.0 mi SSW 6.9 mph - N/A   Clear
3:55 PM 96.1 °F 36.9 °F 13% 30.00 in 10.0 mi SSE 5.8 mph - N/A   Clear
4:15 PM 96.1 °F 37.8 °F 13% 29.99 in 10.0 mi SE 8.1 mph - N/A   Clear
4:35 PM 97.0 °F 37.9 °F 13% 29.98 in 10.0 mi SSE 5.8 mph - N/A   Clear
4:55 PM 97.0 °F 37.9 °F 13% 29.98 in 10.0 mi SE 6.9 mph - N/A   Clear
5:15 PM 97.5 °F 37.9 °F 13% 29.97 in 10.0 mi South 10.4 mph - N/A   Clear
5:35 PM 96.8 °F 37.6 °F 13% 29.96 in 7.0 mi SE 4.6 mph - N/A   Clear
5:55 PM 96.1 °F 37.9 °F 13% 29.96 in 10.0 mi SE 3.5 mph - N/A   Clear
6:15 PM 97.7 °F 38.3 °F 13% 29.96 in 10.0 mi WNW 10.4 mph - N/A   Clear
6:35 PM 96.6 °F 38.3 °F 13% 29.95 in 10.0 mi WNW 9.2 mph 17.3 mph N/A   Clear
6:55 PM 95.2 °F 37.6 °F 13% 29.95 in 10.0 mi WNW 9.2 mph - N/A   Clear
7:15 PM 94.3 °F 37.9 °F 14% 29.95 in 10.0 mi WNW 9.2 mph - N/A   Clear
7:35 PM 93.2 °F 39.7 °F 15% 29.96 in 10.0 mi WNW 12.7 mph 16.1 mph N/A   Clear
7:55 PM 92.3 °F 40.1 °F 16% 29.96 in 10.0 mi NW 8.1 mph - N/A   Clear
8:15 PM 91.4 °F 40.8 °F 17% 29.97 in 10.0 mi NW 9.2 mph - N/A   Clear
8:35 PM 91.0 °F 39.6 °F 16% 29.98 in 10.0 mi WNW 8.1 mph - N/A   Clear
8:55 PM 88.3 °F 42.6 °F 20% 30.00 in 7.0 mi WNW 20.7 mph 35.7 mph N/A   Scattered Clouds
9:15 PM 87.1 °F 42.1 °F 21% 30.01 in 10.0 mi West 26.5 mph 32.2 mph N/A   Scattered Clouds
9:35 PM 85.3 °F 42.8 °F 22% 30.02 in 10.0 mi WNW 28.8 mph 33.4 mph N/A   Scattered Clouds
9:55 PM 85.3 °F 40.3 °F 20% 30.05 in 10.0 mi NW 18.4 mph 32.2 mph N/A   Scattered Clouds
10:15 PM 84.9 °F 41.5 °F 22% 30.09 in 10.0 mi West 31.1 mph 42.6 mph N/A Thunderstorm Mostly Cloudy
10:35 PM 81.5 °F 45.5 °F 28% 30.12 in 7.0 mi NW 21.9 mph 36.8 mph N/A   Mostly Cloudy
10:55 PM 83.1 °F 43.7 °F 25% 30.13 in 10.0 mi North 10.4 mph 24.2 mph N/A   Overcast
11:15 PM 84.2 °F 42.3 °F 23% 30.14 in 10.0 mi East 6.9 mph 19.6 mph N/A   Mostly Cloudy
11:35 PM 81.1 °F 46.9 °F 30% 30.13 in 10.0 mi ENE 16.1 mph 28.8 mph N/A   Mostly Cloudy
11:55 PM 78.6 °F 50.9 °F 38% 30.15 in 10.0 mi East 18.4 mph 24.2 mph N/A   Scattered Clouds